Location: Huppendorf
(49.9333°N, 11.1500°E)
Time: 03:28:08
(UTC+00:00)

Cosmos 2208 Rocket - Pass Details

Date: 27 February 2020
Orbit: 755 x 805 km, 74.0° (Epoch: 29 March)

Event Time Altitude Azimuth Distance (km) Brightness Sun altitude
Rises 19:07:33 0° 203° (SSW) 3,294 7.4 -22.2°
Reaches altitude 10° 19:09:57 10° 204° (SSW) 2,363 6.6 -22.6°
Maximum altitude 19:15:21 86° 294° (WNW) 799 4.0 -23.4°
Drops below altitude 10° 19:20:43 10° 23° (NNE) 2,348 6.4 -24.3°
Sets 19:23:06 0° 24° (NNE) 3,272 7.2 -24.6°
